This is the latest recevied weather packets stored in our database for station/object AB4BJ-10. If no packets are shown the sender has not sent any weather packets the latest 10 day(s).
| Time | Temp. | Humidity | Pressure | Rain* | Wind** | Luminosity | Snow |
|---|---|---|---|---|---|---|---|
| 1787960007 | 28.33° C | 73% | 1011.7 hPa | 0 mm | - | - | - |
| 1787959708 | 28.33° C | 72% | 1011.8 hPa | 0 mm | - | - | - |
| 1787959407 | 28.89° C | 71% | 1011.7 hPa | 0 mm | - | - | - |
| 1787959107 | 28.89° C | 70% | 1011.6 hPa | 0 mm | - | - | - |
| 1787958806 | 28.89° C | 69% | 1011.6 hPa | 0 mm | - | - | - |
| 1787958506 | 29.44° C | 69% | 1011.7 hPa | 0 mm | - | - | - |
| 1787958207 | 29.44° C | 68% | 1011.6 hPa | 0 mm | - | - | - |
| 1787957905 | 29.44° C | 68% | 1011.7 hPa | 0 mm | - | - | - |
| 1787957605 | 30° C | 66% | 1011.7 hPa | 0 mm | - | - | - |
| 1787957306 | 30° C | 67% | 1011.6 hPa | 0 mm | - | - | - |
| 1787956704 | 30.56° C | 63% | 1011.4 hPa | 0 mm | - | - | - |
| 1787956404 | 30.56° C | 62% | 1011.5 hPa | 0 mm | - | - | - |
| 1787956105 | 30.56° C | 62% | 1011.5 hPa | 0 mm | - | - | - |
| 1787955874 | 30.56° C | 62% | 1011.5 hPa | 0 mm | - | - | - |
| 1787955805 | 30.56° C | 62% | 1011.5 hPa | 0 mm | - | - | - |
| 1787955203 | 30.56° C | 62% | 1011.5 hPa | 0 mm | - | - | - |
| 1787954903 | 30.56° C | 62% | 1011.6 hPa | 0 mm | - | - | - |
| 1787954672 | 30.56° C | 62% | 1011.5 hPa | 0 mm | - | - | - |
| 1787954603 | 30.56° C | 62% | 1011.5 hPa | 0 mm | - | - | - |
| 1787954004 | 30.56° C | 59% | 1011.5 hPa | 0 mm | - | - | - |
| 1787953702 | 30.56° C | 58% | 1011.6 hPa | 0 mm | - | - | - |
| 1787953548 | 30.56° C | 61% | 1011.6 hPa | 0 mm | - | - | - |
| 1787953402 | 30.56° C | 61% | 1011.6 hPa | 0 mm | - | - | - |
| 1787953102 | 31.11° C | 59% | 1011.6 hPa | 0 mm | - | - | - |
| 1787952577 | 31.11° C | 61% | 1011.6 hPa | 0 mm | - | - | - |
* Rain latest hour (hover to see other rain measurements)
** Current wind speed in m/s (hover to see current wind gust speed)